FW8496 Weather Reports


Display with metric or nautical units.
time (UTC)temp
F
wind
direction
speed
MPH
gust
MPH
rain 1hr
in
rain 24hr
in
rain mn
in
humidity
%
barometer
mb
20260510230542 73 120 11.0 19.0 0.00 0.00 0.00 26 1022.4
20260510230056 73 142 9.0 19.0 0.00 0.00 0.00 26 1022.4
20260510225542 73 144 9.0 22.0 0.00 0.00 0.00 27 1022.4
20260510225044 73 135 9.0 22.0 0.00 0.00 0.00 28 1022.4
20260510224550 73 102 11.0 26.0 0.00 0.00 0.00 28 1022.1
20260510224041 73 113 11.0 26.0 0.00 0.00 0.00 28 1022.1
20260510223541 73 107 10.0 24.0 0.00 0.00 0.00 28 1022.0
20260510223042 74 130 12.0 24.0 0.00 0.00 0.00 27 1021.8
20260510222542 74 107 12.0 24.0 0.00 0.00 0.00 27 1021.9
20260510222042 74 119 13.0 24.0 0.00 0.00 0.00 26 1021.9
20260510221547 75 99 10.0 22.0 0.00 0.00 0.00 26 1021.7
20260510221041 75 153 13.0 23.0 0.00 0.00 0.00 25 1021.9
20260510220542 76 173 8.0 23.0 0.00 0.00 0.00 24 1021.8
20260510220048 76 105 12.0 22.0 0.00 0.00 0.00 24 1021.7
20260510215543 76 97 9.0 20.0 0.00 0.00 0.00 24 1021.7
20260510215042 76 146 12.0 20.0 0.00 0.00 0.00 23 1021.7
20260510214551 77 195 8.0 19.0 0.00 0.00 0.00 23 1021.7
20260510214043 76 159 6.0 19.0 0.00 0.00 0.00 23 1021.7
20260510213544 76 117 8.0 18.0 0.00 0.00 0.00 23 1021.9
20260510213052 76 161 10.0 18.0 0.00 0.00 0.00 23 1021.9
20260510212541 76 177 7.0 17.0 0.00 0.00 0.00 23 1022.0
20260510212041 76 169 9.0 17.0 0.00 0.00 0.00 24 1022.0
20260510211549 75 121 6.0 15.0 0.00 0.00 0.00 24 1022.0
20260510211042 74 159 6.0 15.0 0.00 0.00 0.00 25 1021.8
20260510210541 73 97 8.0 17.0 0.00 0.00 0.00 26 1021.8
20260510210053 71 90 8.0 20.0 0.00 0.00 0.00 27 1021.7
20260510205544 70 128 7.0 20.0 0.00 0.00 0.00 28 1021.7
20260510205041 69 155 10.0 20.0 0.00 0.00 0.00 30 1021.7
20260510204558 68 111 8.0 16.0 0.00 0.00 0.00 31 1021.9
20260510204041 68 103 7.0 15.0 0.00 0.00 0.00 31 1022.1
20260510203542 67 68 7.0 15.0 0.00 0.00 0.00 32 1022.2
20260510203051 67 96 5.0 15.0 0.00 0.00 0.00 32 1022.4
20260510202542 67 76 4.0 17.0 0.00 0.00 0.00 31 1022.7
20260510202042 68 102 9.0 17.0 0.00 0.00 0.00 31 1022.8
20260510201547 68 105 7.0 14.0 0.00 0.00 0.00 31 1022.7
20260510201042 69 134 5.0 14.0 0.00 0.00 0.00 29 1022.6
20260510200542 69 130 8.0 13.0 0.00 0.00 0.00 24 1022.4
20260510200049 69 60 4.0 14.0 0.00 0.00 0.00 21 1022.1
20260510195542 70 309 2.0 29.0 0.00 0.00 0.00 21 1022.0
20260510195042 70 298 9.0 29.0 0.00 0.00 0.00 21 1022.2
20260510194602 72 280 16.0 29.0 0.00 0.00 0.00 18 1022.3
20260510194042 75 248 5.0 12.0 0.00 0.00 0.00 19 1022.2
20260510193543 76 181 5.0 12.0 0.00 0.00 0.00 19 1022.1
20260510193054 77 158 4.0 21.0 0.00 0.00 0.00 18 1022.0
20260510192542 79 223 9.0 21.0 0.00 0.00 0.00 17 1021.9
20260510192042 81 205 6.0 14.0 0.00 0.00 0.00 17 1021.9
20260510191607 81 168 6.0 14.0 0.00 0.00 0.00 17 1021.7
20260510191043 81 113 6.0 15.0 0.00 0.00 0.00 18 1021.8
20260510190545 80 171 7.0 15.0 0.00 0.00 0.00 18 1022.1
20260510190056 80 173 3.0 14.0 0.00 0.00 0.00 19 1022.1
20260510185542 79 197 3.0 21.0 0.00 0.00 0.00 19 1022.1
20260510185041 78 119 8.0 21.0 0.00 0.00 0.00 19 1022.3
20260510184549 78 202 5.0 16.0 0.00 0.00 0.00 19 1022.2
20260510184043 78 285 8.0 16.0 0.00 0.00 0.00 19 1022.2
20260510183542 78 242 7.0 14.0 0.00 0.00 0.00 19 1022.3
20260510183049 79 211 4.0 12.0 0.00 0.00 0.00 19 1022.4
20260510182542 79 250 6.0 12.0 0.00 0.00 0.00 18 1022.4
20260510182041 78 149 3.0 11.0 0.00 0.00 0.00 20 1022.5
20260510181550 78 218 5.0 14.0 0.00 0.00 0.00 19 1022.6
20260510181041 77 180 7.0 14.0 0.00 0.00 0.00 20 1022.5
20260510180542 77 109 5.0 13.0 0.00 0.00 0.00 21 1022.4
20260510180106 76 209 6.0 16.0 0.00 0.00 0.00 22 1022.4
20260510175542 76 130 9.0 17.0 0.00 0.00 0.00 22 1022.6
20260510175043 76 119 8.0 17.0 0.00 0.00 0.00 23 1022.7
20260510174551 76 153 6.0 13.0 0.00 0.00 0.00 23 1022.6
20260510174044 75 154 4.0 15.0 0.00 0.00 0.00 23 1022.7
20260510173542 75 178 8.0 15.0 0.00 0.00 0.00 22 1022.7
20260510173049 75 183 6.0 17.0 0.00 0.00 0.00 22 1022.7
20260510172541 75 172 8.0 17.0 0.00 0.00 0.00 23 1022.7
20260510172045 75 204 7.0 14.0 0.00 0.00 0.00 23 1022.7
20260510171553 75 202 6.0 11.0 0.00 0.00 0.00 24 1022.7
20260510171044 75 128 5.0 11.0 0.00 0.00 0.00 24 1022.6
20260510170541 75 234 6.0 10.0 0.00 0.00 0.00 23 1022.6
20260510170049 74 182 4.0 13.0 0.00 0.00 0.00 24 1022.6
20260510165541 74 129 5.0 13.0 0.00 0.00 0.00 24 1022.6
20260510165045 73 150 6.0 15.0 0.00 0.00 0.00 24 1022.5
20260510164555 73 183 9.0 15.0 0.00 0.00 0.00 25 1022.5
20260510164042 73 155 5.0 14.0 0.00 0.00 0.00 26 1022.5
20260510163542 72 165 4.0 14.0 0.00 0.00 0.00 26 1022.4
20260510163058 72 225 7.0 14.0 0.00 0.00 0.00 25 1022.4
20260510162542 72 187 6.0 12.0 0.00 0.00 0.00 26 1022.4
20260510162041 72 203 4.0 10.0 0.00 0.00 0.00 26 1022.3
20260510161559 71 162 5.0 16.0 0.00 0.00 0.00 25 1022.3
20260510161042 71 165 5.0 16.0 0.00 0.00 0.00 25 1022.3
20260510160542 71 263 5.0 16.0 0.00 0.00 0.00 25 1022.3
20260510160057 70 180 3.0 15.0 0.00 0.00 0.00 26 1022.3
20260510155541 70 106 7.0 15.0 0.00 0.00 0.00 27 1022.4
20260510155041 70 169 4.0 14.0 0.00 0.00 0.00 27 1022.3
20260510154549 69 144 6.0 14.0 0.00 0.00 0.00 26 1022.2
20260510154041 69 187 6.0 14.0 0.00 0.00 0.00 26 1022.2
20260510153543 69 174 6.0 14.0 0.00 0.00 0.00 27 1022.2
20260510153052 68 180 5.0 14.0 0.00 0.00 0.00 27 1022.1
20260510152542 68 129 6.0 15.0 0.00 0.00 0.00 28 1022.2
20260510152043 67 189 6.0 15.0 0.00 0.00 0.00 27 1022.2
20260510151553 67 175 6.0 14.0 0.00 0.00 0.00 28 1022.2
20260510151042 67 193 6.0 14.0 0.00 0.00 0.00 28 1022.0
20260510150542 66 175 5.0 13.0 0.00 0.00 0.00 28 1022.2
20260510150056 65 154 5.0 13.0 0.00 0.00 0.00 29 1022.0
20260510145541 65 198 5.0 13.0 0.00 0.00 0.00 30 1022.0
20260510145041 64 217 4.0 11.0 0.00 0.00 0.00 30 1022.0
20260510144548 63 152 3.0 11.0 0.00 0.00 0.00 31 1022.0
20260510144047 62 313 3.0 6.0 0.00 0.00 0.00 28 1022.1
20260510143542 62 263 1.0 5.0 0.00 0.00 0.00 29 1022.0
20260510143107 62 360 0.0 9.0 0.00 0.00 0.00 29 1022.0
20260510142542 61 341 2.0 9.0 0.00 0.00 0.00 29 1021.9
20260510142042 61 350 5.0 9.0 0.00 0.00 0.00 29 1021.8
20260510141552 61 332 3.0 8.0 0.00 0.00 0.00 29 1021.8
20260510141044 60 23 3.0 8.0 0.00 0.00 0.00 29 1021.7
20260510140541 60 36 4.0 8.0 0.00 0.00 0.00 29 1021.5
20260510140048 59 5 4.0 9.0 0.00 0.00 0.00 30 1021.5
20260510135544 59 340 2.0 9.0 0.00 0.00 0.00 31 1021.5
20260510135042 58 29 5.0 9.0 0.00 0.00 0.00 31 1021.5
20260510134557 57 49 4.0 10.0 0.00 0.00 0.00 33 1021.4
20260510134044 56 49 4.0 10.0 0.00 0.00 0.00 34 1021.4
20260510133545 55 67 5.0 10.0 0.00 0.00 0.00 36 1021.5
20260510133051 55 76 4.0 9.0 0.00 0.00 0.00 38 1021.5
20260510132541 55 76 5.0 9.0 0.00 0.00 0.00 39 1021.3
20260510132042 55 92 4.0 9.0 0.00 0.00 0.00 39 1021.3
20260510131552 55 90 4.0 7.0 0.00 0.00 0.00 39 1021.1
20260510131041 55 98 2.0 6.0 0.00 0.00 0.00 38 1020.9
20260510130541 54 84 1.0 4.0 0.00 0.00 0.00 38 1020.8
20260510130050 54 108 1.0 3.0 0.00 0.00 0.00 38 1020.7
20260510125541 55 121 1.0 4.0 0.00 0.00 0.00 37 1020.5
20260510125042 55 133 1.0 4.0 0.00 0.00 0.00 37 1020.4
20260510124550 55 128 2.0 5.0 0.00 0.00 0.00 36 1020.4
20260510124042 55 123 1.0 5.0 0.00 0.00 0.00 36 1020.4
20260510123542 55 132 2.0 5.0 0.00 0.00 0.00 35 1020.4
20260510123048 55 126 1.0 4.0 0.00 0.00 0.00 35 1020.4
20260510122541 56 126 1.0 3.0 0.00 0.00 0.00 35 1020.3
20260510122041 56 97 1.0 4.0 0.00 0.00 0.00 35 1020.4
20260510121545 56 0 1.0 4.0 0.00 0.00 0.00 34 1020.3
20260510121041 56 136 2.0 4.0 0.00 0.00 0.00 34 1020.2
20260510120541 57 135 1.0 4.0 0.00 0.00 0.00 33 1020.2
20260510120048 57 135 1.0 4.0 0.00 0.00 0.00 33 1020.2
20260510115542 57 138 2.0 6.0 0.00 0.00 0.00 33 1020.2
20260510115041 57 123 1.0 6.0 0.00 0.00 0.00 33 1020.2
20260510114544 57 122 2.0 8.0 0.00 0.00 0.00 33 1020.2
20260510114041 57 110 2.0 8.0 0.00 0.00 0.00 33 1020.1
20260510113541 57 71 2.0 4.0 0.00 0.00 0.00 31 1020.0
20260510113059 57 105 2.0 6.0 0.00 0.00 0.00 30 1020.0
20260510112542 57 110 2.0 6.0 0.00 0.00 0.00 30 1019.9
20260510112041 57 163 1.0 2.0 0.00 0.00 0.00 30 1019.8
20260510111556 57 0 1.0 4.0 0.00 0.00 0.00 30 1019.8
20260510111041 57 0 1.0 4.0 0.00 0.00 0.00 30 1019.7
20260510110541 57 181 1.0 5.0 0.00 0.00 0.00 30 1019.7
20260510110049 58 169 2.0 6.0 0.00 0.00 0.00 30 1019.6
20260510105541 58 134 2.0 6.0 0.00 0.00 0.00 30 1019.4
20260510105042 58 143 1.0 11.0 0.00 0.00 0.00 30 1019.5
20260510104556 58 0 0.0 12.0 0.00 0.00 0.00 30 1019.5
20260510104044 57 174 6.0 12.0 0.00 0.00 0.00 30 1019.4
20260510103541 57 113 4.0 10.0 0.00 0.00 0.00 30 1019.5
20260510103050 58 130 4.0 9.0 0.00 0.00 0.00 30 1019.5
20260510102542 58 142 2.0 6.0 0.00 0.00 0.00 30 1019.4
20260510102042 58 142 1.0 4.0 0.00 0.00 0.00 30 1019.4
20260510101543 58 167 2.0 4.0 0.00 0.00 0.00 29 1019.2
20260510101041 59 167 2.0 4.0 0.00 0.00 0.00 29 1019.2
20260510100542 59 167 2.0 4.0 0.00 0.00 0.00 28 1019.1
20260510100050 59 167 3.0 4.0 0.00 0.00 0.00 28 1019.1
20260510095542 60 167 1.0 3.0 0.00 0.00 0.00 28 1019.1
20260510095042 60 167 1.0 5.0 0.00 0.00 0.00 27 1019.1
20260510094550 60 167 3.0 5.0 0.00 0.00 0.00 27 1019.0
20260510094041 61 10 0.0 3.0 0.00 0.00 0.00 26 1018.9
20260510093541 61 10 1.0 3.0 0.00 0.00 0.00 26 1018.8
20260510093103 61 10 2.0 3.0 0.00 0.00 0.00 26 1018.8
20260510092540 61 10 1.0 3.0 0.00 0.00 0.00 26 1018.8
20260510092040 61 10 0.0 5.0 0.00 0.00 0.00 26 1018.6
20260510091547 61 10 1.0 8.0 0.00 0.00 0.00 26 1018.6
20260510091041 61 15 3.0 8.0 0.00 0.00 0.00 26 1018.4
20260510090539 61 352 3.0 8.0 0.00 0.00 0.00 26 1018.3
20260510090049 61 5 5.0 9.0 0.00 0.00 0.00 26 1018.2
20260510085541 61 46 5.0 9.0 0.00 0.00 0.00 26 1018.0
20260510085041 61 36 5.0 10.0 0.00 0.00 0.00 26 1018.1
20260510084550 61 30 5.0 10.0 0.00 0.00 0.00 26 1018.1
20260510084042 61 5 5.0 9.0 0.00 0.00 0.00 26 1018.1
20260510083545 61 11 5.0 11.0 0.00 0.00 0.00 26 1018.0
20260510083052 61 40 5.0 11.0 0.00 0.00 0.00 26 1018.0
20260510082541 61 35 5.0 9.0 0.00 0.00 0.00 26 1018.0
20260510082044 61 22 5.0 10.0 0.00 0.00 0.00 26 1018.0
20260510081619 61 16 5.0 10.0 0.00 0.00 0.00 26 1018.0
20260510081042 61 45 4.0 9.0 0.00 0.00 0.00 26 1017.9
20260510080541 61 34 5.0 9.0 0.00 0.00 0.00 26 1018.0
20260510080044 62 32 4.0 9.0 0.00 0.00 0.00 26 1018.0
20260510075541 61 26 4.0 9.0 0.00 0.00 0.00 26 1018.0
20260510075042 61 24 4.0 8.0 0.00 0.00 0.00 26 1018.0
20260510074553 61 23 5.0 9.0 0.00 0.00 0.00 26 1018.0
20260510074041 61 11 5.0 9.0 0.00 0.00 0.00 26 1018.0
20260510073541 61 355 5.0 10.0 0.00 0.00 0.00 26 1018.0
20260510073103 61 355 6.0 10.0 0.00 0.00 0.00 26 1018.1
20260510072545 61 13 5.0 10.0 0.00 0.00 0.00 26 1018.0
20260510072044 61 22 4.0 10.0 0.00 0.00 0.00 26 1018.0
20260510071548 62 15 4.0 11.0 0.00 0.00 0.00 26 1018.0
20260510071041 62 17 7.0 11.0 0.00 0.00 0.00 26 1018.0
20260510070541 62 18 5.0 11.0 0.00 0.00 0.00 26 1018.1
20260510070048 61 23 7.0 11.0 0.00 0.00 0.00 26 1018.0
20260510065541 61 336 7.0 11.0 0.00 0.00 0.00 26 1017.9
20260510065041 61 14 6.0 10.0 0.00 0.00 0.00 26 1017.9
20260510064559 62 15 5.0 9.0 0.00 0.00 0.00 26 1017.9
20260510064041 62 36 5.0 10.0 0.00 0.00 0.00 26 1017.8
20260510063541 62 24 5.0 10.0 0.00 0.00 0.00 26 1017.9
20260510063053 62 344 5.0 10.0 0.00 0.00 0.00 25 1018.0
20260510062542 62 355 5.0 10.0 0.00 0.00 0.00 25 1017.9
20260510062041 62 360 5.0 10.0 0.00 0.00 0.00 25 1017.9
20260510061552 62 14 5.0 10.0 0.00 0.00 0.00 25 1017.8
20260510061042 63 26 5.0 10.0 0.00 0.00 0.00 25 1017.7
20260510060544 63 26 6.0 10.0 0.00 0.00 0.00 24 1017.7
20260510060051 63 33 5.0 12.0 0.00 0.00 0.00 24 1017.7
20260510055543 63 9 5.0 12.0 0.00 0.00 0.00 24 1017.7
20260510055043 63 360 6.0 12.0 0.00 0.00 0.00 24 1017.7
20260510054549 64 5 5.0 11.0 0.00 0.00 0.00 24 1017.6
20260510054043 64 352 6.0 13.0 0.00 0.00 0.00 24 1017.6
20260510053544 64 16 7.0 13.0 0.00 0.00 0.00 23 1017.5
20260510053105 64 11 5.0 13.0 0.00 0.00 0.00 23 1017.5
20260510052544 64 328 6.0 12.0 0.00 0.00 0.00 22 1017.6
20260510052043 64 345 6.0 13.0 0.00 0.00 0.00 22 1017.6
20260510051602 65 323 7.0 13.0 0.00 0.00 0.00 22 1017.6
20260510051042 65 24 9.0 15.0 0.00 0.00 0.00 21 1017.6
20260510050542 65 351 9.0 17.0 0.00 0.00 0.00 21 1017.6
20260510050100 65 334 10.0 17.0 0.00 0.00 0.00 21 1017.6
20260510045544 66 339 8.0 13.0 0.00 0.00 0.00 21 1017.6
20260510045048 66 15 8.0 15.0 0.00 0.00 0.00 20 1017.5
20260510044601 66 328 7.0 15.0 0.00 0.00 0.00 20 1017.5
20260510044043 66 333 8.0 15.0 0.00 0.00 0.00 20 1017.4
20260510043545 66 327 6.0 10.0 0.00 0.00 0.00 19 1017.5
20260510043057 66 344 5.0 12.0 0.00 0.00 0.00 19 1017.5
20260510042542 66 329 5.0 12.0 0.00 0.00 0.00 19 1017.6
20260510042043 66 334 6.0 12.0 0.00 0.00 0.00 18 1017.6
20260510041550 66 360 5.0 13.0 0.00 0.00 0.00 18 1017.5
20260510041043 66 329 6.0 13.0 0.00 0.00 0.00 18 1017.5
20260510040544 66 360 5.0 9.0 0.00 0.00 0.00 18 1017.4
20260510040051 66 333 4.0 9.0 0.00 0.00 0.00 18 1017.3
20260510035543 67 13 5.0 9.0 0.00 0.00 0.00 18 1017.3
20260510035043 67 360 5.0 9.0 0.00 0.00 0.00 17 1017.3
20260510034549 67 9 4.0 9.0 0.00 0.00 0.00 17 1017.3
20260510034046 67 360 5.0 11.0 0.00 0.00 0.00 17 1017.2
20260510033545 67 360 4.0 11.0 0.00 0.00 0.00 16 1017.2
20260510033106 68 323 5.0 12.0 0.00 0.00 0.00 16 1017.1
20260510032546 68 355 6.0 14.0 0.00 0.00 0.00 16 1016.9
20260510032043 68 329 6.0 14.0 0.00 0.00 0.00 15 1016.9
20260510031552 68 5 6.0 13.0 0.00 0.00 0.00 15 1016.7
20260510031042 68 355 6.0 11.0 0.00 0.00 0.00 14 1016.6
20260510030544 68 351 4.0 8.0 0.00 0.00 0.00 14 1016.4
20260510030110 69 325 4.0 8.0 0.00 0.00 0.00 14 1016.2
20260510025543 69 345 4.0 8.0 0.00 0.00 0.00 14 1016.2
20260510025041 69 329 4.0 8.0 0.00 0.00 0.00 14 1016.2
20260510024543 70 322 4.0 11.0 0.00 0.00 0.00 14 1016.0
20260510024041 70 313 4.0 11.0 0.00 0.00 0.00 14 1016.0
20260510023541 70 319 4.0 8.0 0.00 0.00 0.00 14 1015.8
20260510023052 71 313 3.0 9.0 0.00 0.00 0.00 14 1015.8
20260510022541 71 313 4.0 9.0 0.00 0.00 0.00 13 1015.8
20260510022042 72 316 3.0 9.0 0.00 0.00 0.00 13 1015.7
20260510021544 72 298 4.0 11.0 0.00 0.00 0.00 13 1015.6
20260510021041 72 296 6.0 11.0 0.00 0.00 0.00 13 1015.5
20260510020541 73 300 5.0 14.0 0.00 0.00 0.00 13 1015.5
20260510020053 73 291 5.0 14.0 0.00 0.00 0.00 12 1015.5
20260510015541 74 312 5.0 15.0 0.00 0.00 0.00 12 1015.4
20260510015041 74 310 6.0 15.0 0.00 0.00 0.00 12 1015.3
20260510014553 75 345 9.0 16.0 0.00 0.00 0.00 12 1015.3
20260510014041 75 269 9.0 16.0 0.00 0.00 0.00 12 1015.2
20260510013541 75 331 9.0 17.0 0.00 0.00 0.00 11 1015.1
20260510013049 76 311 9.0 20.0 0.00 0.00 0.00 11 1015.1
20260510012542 76 262 11.0 23.0 0.00 0.00 0.00 11 1015.0
20260510012041 77 291 11.0 23.0 0.00 0.00 0.00 10 1015.1
20260510011548 77 286 9.0 24.0 0.00 0.00 0.00 10 1014.9
20260510011041 77 332 10.0 24.0 0.00 0.00 0.00 11 1014.9
20260510010541 78 311 12.0 23.0 0.00 0.00 0.00 10 1014.8
20260510010049 78 288 11.0 23.0 0.00 0.00 0.00 10 1014.8
20260510005541 78 304 10.0 23.0 0.00 0.00 0.00 10 1014.8
20260510005041 78 297 15.0 23.0 0.00 0.00 0.00 10 1014.7
20260510004553 78 321 11.0 20.0 0.00 0.00 0.00 10 1014.7
20260510004041 78 313 7.0 22.0 0.00 0.00 0.00 10 1014.8
20260510003542 78 313 10.0 24.0 0.00 0.00 0.00 10 1014.8
20260510003100 78 306 13.0 24.0 0.00 0.00 0.00 10 1014.9
20260510002541 78 321 13.0 23.0 0.00 0.00 0.00 10 1014.7
20260510002042 78 324 13.0 23.0 0.00 0.00 0.00 10 1014.7
20260510001547 79 279 11.0 24.0 0.00 0.00 0.00 10 1014.6
20260510001042 79 303 14.0 24.0 0.00 0.00 0.00 10 1014.7
20260510000543 79 320 13.0 25.0 0.00 0.00 0.00 10 1014.6
20260510000054 79 308 12.0 25.0 0.00 0.00 0.00 10 1014.6
20260509235541 79 310 11.0 19.0 0.00 0.00 0.00 10 1014.6
20260509235041 79 308 11.0 19.0 0.00 0.00 0.00 9 1014.6
20260509234558 79 286 10.0 19.0 0.00 0.00 0.00 10 1014.6
20260509234041 80 261 9.0 23.0 0.00 0.00 0.00 10 1014.6
20260509233541 80 304 12.0 23.0 0.00 0.00 0.00 10 1014.6
20260509233053 81 315 9.0 24.0 0.00 0.00 0.00 9 1014.4
20260509232542 82 279 11.0 24.0 0.00 0.00 0.00 9 1014.6
20260509232041 82 298 11.0 19.0 0.00 0.00 0.00 9 1014.6
20260509231550 82 294 8.0 18.0 0.00 0.00 0.00 9 1014.5
20260509231041 83 291 12.0 24.0 0.00 0.00 0.00 9 1014.4